Showing default

FORMOSAT7-1/COSMIC2-1, 44349

Orbit data source: Space-Track

FORMOSAT7-1/COSMIC2-1, 44349 is a payload satellite owned by NSPO (TW) in LEO that was launched on Tue, 25 Jun 2019 UTC via an FALCON HEAVY launch vehicle from the Air Force Eastern Test Range (AFETR). Payload-class satellites include a variety of spacecraft equipped with specific instruments for various scientific and technological missions. These include communications satellites like Starlink; space stations such as the ISS; scientific satellites like the Hubble; Earth observation satellites from companies like Planet Labs, Umbra, and HawkEye 360; GPS; miniature CubeSats for education and research; and military/defense satellites.

Not visible in the next 10 days
Identifier
44349, 2019-036L
Orbit
LEO
Country
Flag of TWTW / TWN
Related business
Manufacturer
SSTL (Astrium)
Mission
Operational Civil Weather
Bus & Motor
SSTL-100, Unknown motor
Mass
278 kg wet, 278 kg dry
Launch date (UTC)
2019-06-25 (6 years ago)
Launch vehicle
FALCON HEAVY
Launch site
Air Force Eastern Test Range (AFETR)
Object type
Payload
Rocket body
Debris
Shape & HBR
Box + 1 Pan, 1.5 m
Radar Cross Section
2.189 m², Large (>1 m²)

Expand to show TLE details & history
Last TLE update: 8 hours ago

TLE from 8 hours ago
0 FORMOSAT7-1/COSMIC2-1
1 44349U 19036L   25343.37217832  .00005519  00000-0  42616-3 0  9995
2 44349  23.9970 232.4382 0000666 271.8239  88.2186 14.98393098356180
Epoch: 2025-12-09T08:55Z
TLE epoch observation values (Epoch: 2025-12-09T08:55:56.206Z)
Latitude
-0.00002°
Longitude
20.09617°
Altitude
569.734 km
Speed
7.579 km/s
True Right ascension
15h 29m 45s
True Declination
0° 00' 00"
Sunlit
Object was in daylight at epoch
Visualization orbit readout
Latitude
Unknown
Longitude
Unknown
Altitude
Unknown
Speed
Unknown
Apparent Right ascension
Unknown
Apparent Declination
Unknown
Sunlit
N/A
Visualization observer readout
Local Sidereal Time
15:20:16
Azimuth
Unknown
Elevation
Unknown
Doppler factor
Unknown
Orbital elements
Apogee altitude
577.095 km
Perigee altitude
576.169 km
Semi-major axis
6,954.769 km
Eccentricity
0.00007
Inclination
23.997°
RAAN
232.4382°
Arg. of periapsis
271.8239°
True anomaly
88.22623°
Mean anomaly
88.2186°
Eccentric anomaly
88.22241°
Mean motion
3.74213 °/min
Orbital period
96.2 mins
BSTAR
0.00042616
Loading maneuver chart data...
Computing Atmospheric mass density...

Documentation

Showing up to 5 results
|